This is the latest recevied weather packets stored in our database for station/object SR2WXM. If no packets are shown the sender has not sent any weather packets the latest 10 day(s).
| Time | Temp. | Humidity | Pressure | Rain* | Wind** | Luminosity | Snow |
|---|---|---|---|---|---|---|---|
| 1777735802 | 25° C | 29% | 1017.6 hPa | 0 mm | - | - | - |
| 1777734902 | 25° C | 30% | 1017.6 hPa | 0 mm | - | - | - |
| 1777734002 | 25° C | 29% | 1017.9 hPa | 0 mm | - | - | - |
| 1777733102 | 25° C | 28% | 1017.9 hPa | 0 mm | - | - | - |
| 1777732201 | 25.56° C | 30% | 1017.9 hPa | 0 mm | - | - | - |
| 1777731302 | 25.56° C | 27% | 1018.2 hPa | 0 mm | - | - | - |
| 1777730401 | 25.56° C | 27% | 1018.2 hPa | 0 mm | - | - | - |
| 1777729501 | 25.56° C | 28% | 1018.9 hPa | 0 mm | - | - | - |
| 1777728602 | 25° C | 24% | 1018.9 hPa | 0 mm | - | - | - |
| 1777727702 | 25° C | 27% | 1019.3 hPa | 0 mm | - | - | - |
| 1777726803 | 25° C | 27% | 1019.3 hPa | 0 mm | - | - | - |
| 1777725902 | 25.56° C | 27% | 1019.9 hPa | 0 mm | - | - | - |
| 1777725009 | 25.56° C | 28% | 1019.9 hPa | 0 mm | - | - | - |
| 1777724102 | 25.56° C | 29% | 1019.9 hPa | 0 mm | - | - | - |
| 1777723203 | 25.56° C | 27% | 1019.9 hPa | 0 mm | - | - | - |
| 1777722302 | 25.56° C | 31% | 1019.9 hPa | 0 mm | - | - | - |
| 1777721402 | 25.56° C | 30% | 1019.9 hPa | 0 mm | - | - | - |
| 1777720502 | 25° C | 29% | 1020.3 hPa | 0 mm | - | - | - |
| 1777719602 | 25° C | 28% | 1020.6 hPa | 0 mm | - | - | - |
| 1777718702 | 23.89° C | 27% | 1020.6 hPa | 0 mm | - | - | - |
| 1777717802 | 25° C | 27% | 1020.6 hPa | 0 mm | - | - | - |
| 1777716902 | 25° C | 30% | 1020.6 hPa | 0 mm | - | - | - |
| 1777716003 | 25° C | 29% | 1021 hPa | 0 mm | - | - | - |
| 1777715103 | 25° C | 29% | 1021 hPa | 0 mm | - | - | - |
| 1777714202 | 25° C | 29% | 1021.6 hPa | 0 mm | - | - | - |
* Rain latest hour (hover to see other rain measurements)
** Current wind speed in m/s (hover to see current wind gust speed)